Orbital Elements at Epoch 2459000.5 (2020-May-31.0) TDB
Reference: JPL 33 (heliocentric ecliptic J2000)
Element | Value | Uncertainty (1-sigma) | Units |
e | .24340490791273 | 3.4558e-08 | |
a | 2.363849240607174 | 6.7517e-09 | au |
q | 1.788476733877608 | 8.2926e-08 | au |
i | 9.559224078219735 | 3.3695e-06 | deg |
node | 91.06008932309491 | 2.28e-05 | deg |
peri | 307.2643024988114 | 2.3779e-05 | deg |
M | 52.67400659330012 | 6.2669e-06 | deg |
tp | 2458806.267481045378 (2019-Nov-18.76748105) | 2.3116e-05 | TDB |
period | 1327.480314219308 3.63 | 5.6874e-06 1.557e-08 | d yr |
n | .2711904622191826 | 1.1619e-09 | deg/d |
Q | 2.939221747336739 | 8.395e-09 | au |
|
| | Orbit Determination Parameters
Additional Information
|